パンスターズ彗星

C/2023 Q1 ( PanSTARRS )

English version
Home page
Updated on June 14, 2025

---------------------------------------------------------------------

・ プロフィール

発見日 2023年8月20日
発見光度 22.0等
発見者 Pan-STARRS 1 telescope (Haleakala)

・ 写真集

・ 軌道要素

Epoch 2025 May 5.0 TT = JDT 2460800.5
T 2024 Dec. 1.13807 TT                                  Pike
q   2.5757324            (2000.0)            P               Q
z  -0.0019342      Peri.   84.42039     -0.00256275     -0.99725325
 +/-0.0000009      Node     7.12442     +0.50178456     -0.06531181
e   1.0049821      Incl.   36.64399     +0.86498883     +0.03493311
From 1053 observations 2023 July 25-2025 Feb. 27, mean residual 0".8.

・ 星図

・ 光度変化

        m1 = 8.5 + 5 logΔ + 12.0 log r

---------------------------------------------------------------------

軌道要素はM.P.E.C. 2025-D254に掲載されたものです。
星図はステラナビゲータ Ver.11 (アストロアーツ) で作成したものです。
光度グラフはComet for Windowsで作成したものです。

---------------------------------------------------------------------

Copyright(C) Seiichi Yoshida (comet@aerith.net). All rights reserved.